Location: Unspecified
(44.5636°N, 0.0000°E)
Time: 13:55:20
(UTC+00:00)

NOAA 16 DEB - Visible Passes

Search period start: 04 April 2026 00:00
Search period end: 14 April 2026 00:00
Orbit: 672 x 716 km, 99.1° (Epoch: 28 March)

Date Brightness Start Highest point End Pass type
(mag) Time Alt. Az. Time Alt. Az. Time Alt. Az.
4 Apr ? 01:32:09 10° N 01:33:55 22° N 01:33:55 22° N visible
5 Apr ? 00:34:35 10° NNE 00:35:43 17° NNE 00:35:43 17° NNE visible
5 Apr ? 02:12:41 10° NNW 02:14:25 18° NNW 02:14:25 18° NNW visible
6 Apr ? 01:14:20 10° N 01:16:11 24° N 01:16:11 24° N visible
6 Apr ? 02:54:49 10° NW 02:54:53 10° NW 02:54:53 10° NW visible
7 Apr ? 00:17:06 10° NE 00:17:56 14° NE 00:17:56 14° NE visible
7 Apr ? 01:54:32 10° N 01:56:38 22° NNW 01:56:38 22° NNW visible
8 Apr ? 00:56:29 10° NNE 00:58:21 23° NNE 00:58:21 23° NNE visible
8 Apr ? 02:35:27 10° NNW 02:37:03 14° NW 02:37:03 14° NW visible
8 Apr ? 23:59:43 10° NE 00:00:02 11° NE 00:00:02 11° NE visible
9 Apr ? 01:36:25 10° N 01:38:44 27° N 01:38:44 27° N visible
10 Apr ? 00:38:41 10° NNE 00:40:23 21° NE 00:40:23 21° NE visible
10 Apr ? 02:16:50 10° NNW 02:19:05 19° NW 02:19:05 19° NW visible
11 Apr ? 01:18:17 10° N 01:20:43 30° N 01:20:43 30° N visible
12 Apr ? 00:20:54 10° NNE 00:22:19 18° NE 00:22:19 18° NE visible
12 Apr ? 01:58:23 10° N 02:01:00 25° NNW 02:01:00 25° NNW visible
13 Apr ? 01:00:11 10° NNE 01:02:35 29° NNE 01:02:35 29° NNE visible
13 Apr ? 02:39:12 10° NNW 02:41:16 14° NW 02:41:16 14° NW visible
